Location: ?????? ??????
(44.3742°N, 135.2221°E)
Time: 13:13:18
(UTC+00:00)

Envisat - Pass Details

Date: 19 May 2025
Orbit: 761 x 763 km, 98.3° (Epoch: 19 June)

Event Time Altitude Azimuth Distance (km) Brightness Sun altitude
Rises 18:26:16 0° 8° (N) 3,236 7.1 -9.7°
Reaches altitude 10° 18:28:38 10° 4° (N) 2,305 6.2 -9.4°
Maximum altitude 18:33:32 51° 289° (WNW) 955 3.3 -8.7°
Drops below altitude 10° 18:38:24 10° 215° (SW) 2,289 4.9 -8.1°
Enters shadow 18:38:44 - 214° (SW) 2,419 5.0 -8.0°
